Weather in El Tigre

Venezuela     8°53′50″N   64°15′53″W
temp.,
°C
wind,
m/s
gust,
m/s
humid.,
%
clouds,
%
prec.,
mm/h
press.,
hPa
HPBL,
m
4 december, sat
sat423:00+24ene5117876 0.0 1012569
02:00+23ene4108877 0.0 1011573
05:00+22ene4109254 0.0 1011432
08:00+24ene5107747 0.0 1014580
11:00+30e675078 0.0 10131622
14:00+33e663678 0.0 10092493
17:00+31e564140 0.0 10081857
20:00+27ene51159100 0.0 1011519
5 december, sun
sun523:00+24ene5117311 0.0 1013553
02:00+23ene5118584 0.0 1012556
05:00+22ene4119323 0.0 1012478
08:00+24ene5108010 0.0 1014603
11:00+31e674794 0.0 10141602
14:00+33e673977 0.0 10102402
17:00+30e464497 0.0 10091384
20:00+26ene5106383 0.0 1012589
6 december, mon
mon623:00+24ene612766 0.0 1014668
02:00+23ene5128949 0.0 1012652
05:00+22ene5119349 0.0 1013615
08:00+24ene6118227 0.0 1015698
11:00+30e68475 0.0 10141569
14:00+33ene674072 0.0 10102281
17:00+30e574651 0.0 10091843
20:00+25e611705 0.0 1012712
7 december, tue
tue723:00+24ene512785 0.0 1013723
02:00+23ene410888 0.0 1012610
05:00+22ene4109527 0.0 1012466
08:00+24ene510809 0.0 1013617
11:00+30e574936 0.0 10131694
14:00+32e5641100 0.0 10092254
17:00+30e564888 0.0 10081054
20:00+26ene486611 0.1 1011538
8 december, wed
wed823:00+23ene5118160 0.1 1012603
02:00+22ene4119158 0.1 1011515
05:00+21ene4109728 0.0 1011402
08:00+24ene598217 0.0 1013552
11:00+30e56485 0.0 10121469
14:00+33e553657 0.0 10082613
17:00+30e57494 0.0 1008697
20:00+26ene410615 0.0 1010584